Location: La Fredeussais
(48.1780°N, 1.3980°W)
Time: 16:02:09
(UTC+00:00)

ATLAS 2AS CENTAUR R/B - Pass Details

Date: 09 May 2021
Orbit: 949 x 1263 km, 63.7° (Epoch: 07 May)

Event Time Altitude Azimuth Distance (km) Brightness Sun altitude
Rises 21:00:00 0° 314° (NW) 4,161 7.9 -12.7°
Reaches altitude 10° 21:03:08 10° 323° (NW) 3,158 6.6 -13.1°
Maximum altitude 21:10:04 37° 29° (NNE) 1,712 3.9 -13.9°
Drops below altitude 10° 21:16:32 10° 95° (E) 2,943 4.6 -14.6°
Enters shadow 21:16:52 - 97° (E) 3,048 4.7 -14.6°
